Home > Time Zones > World Clock > Weather > Iran > Ahvaz > Past weeks

Flag Weather past 2 weeks in Ahvaz, Iran

Now
55 °F

Fog.


Feels Like: 55 °F
Forecast: 54 / 71 °F
Wind: No wind

Location: Ahwaz

Current Time: Nov 26, 2014 at 10:25:18 PM

Latest Report: Nov 26, 2014 at 10:00 PM


Visibility: 2 mi

Pressure: 30.04 "Hg

Humidity: 94%

Dew point: 54 °F

Location of AhvazLocation

Historic Weather in Ahvaz — Graph

°F

Ahvaz temperature yesterday

Maximum temperature yesterday: 64 °F (at 8:55 AM)
Minimum temperature yesterday: 59 °F (at 1:30 AM)
Average temperature yesterday: 62 °F

Past Weeks' High & Low Weather Summary

 TemperatureHumidityPressure
High82 °F (Nov 15, 2:00 PM)100% (Nov 25, 1:30 AM)30.18 "Hg (Nov 25, 1:30 AM)
Low46 °F (Nov 13, 5:30 AM)15% (Nov 13, 2:55 PM)29.80 "Hg (Nov 25, 3:55 PM)
Average66 °F61%30.02 "Hg
* Reported Nov 11 8:30 PM — Nov 26 9:00 PM, Ahvaz, Weather by CustomWeather, © 2014

Note: Actual official high and low records may vary slightly from our data, if they occured in-between our weather recording intervals... More about our weather records

Advertising

Ahvaz weather history for previous 24 hours

 ConditionsComfort  
Time TempWeatherWind HumidityBarometerVisibility
9:00 PM
Nov 26
59 °FFog.2 mph82%30.04 "Hg3 mi
8:30 PM59 °FFog.5 mph82%30.04 "Hg3 mi
8:00 PM59 °FFog.5 mph88%30.04 "Hg3 mi
7:30 PM59 °FFog.No wind88%30.04 "Hg3 mi
7:00 PM61 °FFog.5 mph88%30.04 "Hg3 mi
6:30 PM61 °FFog.5 mph88%30.04 "Hg3 mi
5:30 PM63 °FFog.7 mph77%30.04 "Hg2 mi
5:00 PM63 °FScattered clouds.2 mph83%30.01 "Hg2 mi
4:30 PM63 °FScattered clouds.5 mph83%30.01 "Hg2 mi
4:00 PM63 °FBroken clouds.5 mph83%30.01 "Hg2 mi
3:30 PM64 °FBroken clouds.2 mph78%30.01 "Hg2 mi
3:00 PM64 °FPartly sunny.5 mph73%30.01 "Hg2 mi
2:30 PM64 °FScattered clouds.No wind73%30.01 "Hg2 mi
2:00 PM64 °FPartly sunny.No wind73%30.01 "Hg2 mi
1:30 PM64 °FPartly sunny.No wind73%30.01 "Hg2 mi
12:30 PM63 °FPartly sunny.5 mph77%30.01 "Hg2 mi
12:00 PM63 °FPartly sunny.No wind83%30.04 "Hg2 mi
11:30 AM63 °FFog.5 mph83%30.04 "Hg1 mi
11:00 AM63 °FFog.5 mph77%30.04 "Hg1 mi
10:30 AM61 °FFog.5 mph83%30.04 "Hg1 mi
10:00 AM61 °FFog.7 mph88%30.04 "Hg1 mi
9:30 AM61 °FFog.5 mph88%30.04 "Hg1 mi
9:00 AM59 °FFog.5 mph94%30.04 "Hg1 mi
8:30 AM59 °FFog.5 mph94%30.04 "Hg1 mi
8:00 AM59 °FFog.No wind94%30.01 "Hg1 mi
7:30 AM59 °FFog.No wind94%30.01 "Hg1 mi
7:00 AM59 °FFog.No wind94%29.98 "Hg1 mi
6:30 AM59 °FFog.2 mph94%29.98 "Hg1 mi
5:30 AM59 °FFog.No wind94%29.95 "Hg1 mi
4:30 AM61 °FFog.5 mph94%29.95 "Hg1 mi
3:30 AM61 °FFog.No wind94%29.95 "Hg1 mi
2:30 AM61 °FFog.7 mph94%29.92 "Hg1 mi
1:30 AM61 °FFog.7 mph94%29.92 "Hg1 mi
12:30 AM61 °FFog.7 mph94%29.92 "Hg3 mi
12:00 AM61 °FPassing clouds.5 mph94%29.92 "Hg4 mi
11:30 PM
Nov 25
61 °FPassing clouds.5 mph94%29.92 "Hg4 mi
11:00 PM61 °FPassing clouds.5 mph94%29.92 "HgN/A
10:30 PM61 °FPassing clouds.7 mph94%29.92 "HgN/A
Weather by CustomWeather, © 2014

See weather overviewHow to use our weather pages